#timestamp,LO_Frequency,Hit,StdDev 
1651978815.3,286046997.3,N
1651978835.1,286046998.3,N
1651978855.9,286047000.8,N
1651978875.7,286046998.8,N
1651978895.6,286046997.4,N
1651978915.4,286046998.0,N
1651978935.2,286046996.3,N
1651978955.1,286046993.5,Y
1651978956.0,286046993.5,P
1651978975.8,286046994.9,N
1651978995.6,286046996.3,N
1651979015.5,286046996.1,N
1651979035.3,286046997.5,N
1651979055.2,286046994.9,N
1651979075.9,286046997.0,N
1651979095.7,286047002.8,N
1651979115.6,286047000.3,N
1651979135.4,286046998.5,N
1651979155.2,286046999.6,N
1651979175.1,286046997.8,N
1651979176.0,286046997.8,N
1651979195.8,286046996.6,N
1651979215.7,286046998.1,N
1651979235.5,286046996.8,N
1651979255.3,286046995.5,N
1651979275.2,286046995.1,N
1651979295.0,286046997.4,N
1651979295.9,286046997.4,N
1651979315.8,286046997.8,N
1651979335.6,286047002.7,N
1651979355.4,286047000.2,N
1651979375.3,286046998.7,N
1651979395.1,286046997.2,N
1651979415.8,286046999.4,N
1651979435.7,286046996.9,N
1651979455.5,286046998.8,N
1651979475.4,286047000.0,N
1651979495.2,286046999.8,N
1651979515.0,286047000.2,N
1651979515.9,286047000.2,N
1651979535.8,286046998.8,N
1651979555.6,286047001.2,N
1651979575.4,286047000.4,N
1651979595.3,286046998.5,N
1651979615.1,286047000.6,N
1651979635.9,286047000.7,N
1651979655.7,286046998.1,N
1651979675.5,286047002.5,N
1651979695.4,286047002.8,N
1651979715.2,286047001.9,N
1651979735.0,286047001.3,N
1651979736.0,286047001.3,N
1651979755.8,286046999.9,N
1651979775.6,286046999.1,N
1651979795.5,286046996.8,N
1651979815.3,286046998.8,N
1651979835.1,286047001.0,N
1651979855.9,286047000.5,N
1651979875.7,286046999.0,N
1651979895.6,286046998.8,N
1651979915.4,286047000.5,N
1651979935.2,286046999.0,N
1651979955.1,286046999.8,N
1651979956.0,286046999.8,N
1651979975.8,286047000.7,N
1651979995.6,286047002.6,N
1651980015.5,286047002.7,N
1651980035.3,286046999.8,N
1651980055.2,286047000.6,N
1651980075.9,286046996.5,N
1651980095.7,286046999.1,N
1651980115.6,286046998.7,N
1651980135.4,286047001.1,N
1651980155.2,286047000.4,N
1651980175.1,286047003.2,N
1651980176.0,286047003.2,N
1651980195.8,286047004.4,N
1651980215.7,286047003.6,N
1651980235.5,286047003.1,N
1651980255.3,286047000.9,N
1651980275.2,286046999.9,N
1651980295.0,286046998.2,N
1651980295.9,286046998.2,N
1651980315.8,286047000.8,N
1651980335.6,286046998.2,N
1651980355.4,286046999.2,N
1651980375.3,286046999.4,N
1651980395.1,286046998.8,N
1651980415.8,286047000.0,N
1651980435.7,286047000.5,N
1651980455.5,286046996.9,N
1651980475.4,286046994.9,N
1651980495.2,286046993.8,N
1651980515.0,286046997.9,N
1651980515.9,286046997.9,N
1651980535.8,286046998.7,N
1651980555.6,286046998.6,N
1651980575.4,286047000.0,N
1651980595.3,286046999.9,N
1651980615.1,286047000.9,N
1651980635.9,286046999.8,N
1651980655.7,286047000.1,N
1651980675.5,286047001.0,N
1651980695.4,286046998.9,N
1651980715.2,286046997.0,N
1651980735.1,286046999.5,N
1651980736.0,286046999.5,N
1651980755.8,286046999.0,N
1651980775.6,286046996.7,N
1651980795.5,286046997.2,N
1651980815.3,286046997.1,N
1651980835.1,286046997.9,N
1651980855.9,286046998.0,N
1651980875.7,286046998.0,N
1651980895.6,286047000.2,N
1651980915.4,286047002.8,N
1651980935.2,286046998.1,N
1651980955.1,286046999.0,N
1651980956.0,286046999.0,N
1651980975.8,286046999.2,N
1651980995.6,286047002.8,N
1651981015.5,286046999.0,N
1651981035.3,286046998.3,N
1651981055.2,286046996.6,N
1651981075.9,286046997.2,N
1651981095.7,286046995.8,N
1651981115.6,286046995.4,N
1651981135.4,286046998.8,N
1651981155.2,286046999.2,N
1651981175.1,286046999.2,N
1651981176.0,286046999.2,N
1651981195.8,286046996.6,N
1651981215.7,286047001.2,N
1651981235.5,286046998.3,N
1651981255.3,286046998.3,N
1651981275.2,286047000.4,N
1651981295.0,286046996.9,N
1651981295.9,286046996.9,N
1651981315.8,286046998.4,N
1651981335.6,286047000.2,N
1651981355.4,286047000.8,N
1651981375.3,286046999.4,N
1651981395.1,286046996.7,N
1651981415.8,286046997.0,N
1651981435.7,286046995.3,N
1651981455.5,286046995.4,N
1651981475.4,286046999.1,N
1651981495.2,286046998.2,N
1651981515.0,286047000.8,N
1651981515.9,286047000.8,N
1651981535.8,286047001.2,N
1651981555.6,286047001.2,N
1651981575.5,286046998.1,N
1651981595.3,286046998.8,N
1651981615.1,286046999.5,N
1651981635.9,286046998.7,N
1651981655.7,286047001.1,N
1651981675.5,286046998.1,N
1651981695.4,286046998.5,N
1651981715.2,286046999.8,N
1651981735.1,286047002.5,N
1651981736.0,286047002.5,N
1651981755.8,286047002.8,N
1651981775.6,286047003.9,N
1651981795.5,286047001.4,N
1651981815.3,286046999.9,N
1651981835.2,286047001.0,N
1651981855.9,286047002.4,N
1651981875.7,286047002.7,N
1651981895.6,286047001.5,N
1651981915.4,286046999.8,N
1651981935.2,286047000.8,N
1651981955.1,286047002.2,N
1651981956.0,286047002.2,N
1651981975.8,286047002.8,N
1651981995.7,286047000.6,N
1651982015.5,286046999.9,N
1651982035.3,286046998.8,N
1651982055.2,286046999.8,N
1651982075.0,286046998.4,N
1651982075.9,286046998.4,N
1651982095.8,286046997.0,N
1651982115.6,286046995.8,N
1651982135.4,286046995.4,N
1651982155.3,286046997.9,N
1651982175.1,286046998.4,N
1651982195.9,286046998.1,N
1651982215.7,286047000.2,N
1651982235.5,286047000.7,N
1651982255.4,286047004.4,N
1651982275.2,286047000.6,N
1651982295.0,286046998.1,N
1651982295.9,286046998.1,N
1651982315.8,286047001.2,N
1651982335.6,286047002.4,N
1651982355.5,286046998.5,N
1651982375.3,286046994.9,N
1651982395.1,286046995.7,N
